Tracking 28790 objects as of 19-Apr-2024
HD Live streaming from Space Station
objects crossing your sky now

DMSP 5D-2 F13 DEB

Track DMSP 5D-2 F13 DEB now!
10-day predictions


NORAD ID: 42282
Int'l Code: 1995-015GY
Perigee: 807.2 km
Apogee: 864.8 km
Inclination: 98.9 °
Period: 101.5 minutes
Semi major axis: 7207 km
RCS: Unknown
Launch date: March 24, 1995
Source: United States (US)
Launch site: AIR FORCE WESTERN TEST RANGE (AFWTR)

Note: This is SATELLITE DEBRIS
Your satellite tracking list
Your tracking list is empty




NASA's NSSDC Master Catalog

Two Line Element Set (TLE):
1 42282U 95015GY  24108.42522046  .00013910  00000-0  66277-2 0  9992
2 42282  98.9442 102.5915 0039976  72.7114 287.8429 14.18952520462666
Source of the keplerian elements: AFSPC